Location: Proctor
(47.8934°N, 114.3048°W)
Time: 16:16:07
(UTC+00:00)

CAS-6 - Pass Details

Date: 30 June 2022
Orbit: 613 x 634 km, 97.9° (Epoch: 18 August)

Event Time Altitude Azimuth Distance (km) Brightness Sun altitude
Exits shadow 05:07:54 15° 131° (SE) 1,703 ? -11.1°
Maximum altitude 05:11:06 37° 69° (ENE) 972 ? -11.4°
Drops below altitude 10° 05:15:07 10° 1° (N) 2,006 ? -11.8°
Sets 05:17:25 0° 354° (N) 2,913 ? -12.0°
